This demonstration page uses our WeatherBlox Daily Observations layout. Learn more.

Left ArrowRight Arrow

Hourly Observations for June 26, 2019

Temp ( °F °C ) Dew Point ( °F °C ) Humidity (%) Winds ( mph kmh ) Pressure ( in mb ) Visibility ( mi km ) Precip ( " mm )
12:53 am 00:53 Clear 65 18.3 64 17.8 97 97 N N/A 30.05 1018 10 16 N/A
1:53 am 01:53 Clear 64 17.8 63 17.2 96 96 N N/A 30.05 1018 10 16 N/A
2:53 am 02:53 Clear 64 17.8 63 17.2 96 96 N N/A 30.06 1018 10 16 N/A
3:53 am 03:53 Clear 65 18.3 64 17.8 97 97 N N/A 30.06 1018 10 16 N/A
4:53 am 04:53 Clear 65 18.3 63 17.2 93 93 ESE 3 6 30.06 1018 10 16 N/A
5:53 am 05:53 Clear 65 18.3 63 17.2 93 93 N N/A 30.07 1018 10 16 N/A
6:53 am 06:53 Sunny 65 18.3 63 17.2 93 93 N N/A 30.10 1019 10 16 N/A
7:53 am 07:53 Sunny 71 21.7 65 18.3 81 81 VRB 5 7 30.11 1020 10 16 N/A
8:53 am 08:53 Sunny 74 23.3 67 19.4 79 79 W 3 6 30.12 1020 10 16 N/A
9:53 am 09:53 Sunny 77 25 67 19.4 71 71 W 5 7 30.13 1020 10 16 N/A
10:53 am 10:53 Sunny 80 26.7 68 20 67 67 W 5 7 30.13 1020 10 16 N/A
11:53 am 11:53 Sunny 82 27.8 68 20 63 63 SW 5 7 30.14 1021 10 16 N/A
12:53 pm 12:53 Sunny 84 28.9 66 18.9 55 55 VRB 5 7 30.14 1021 10 16 N/A
1:53 pm 13:53 Sunny 86 30 67 19.4 53 53 VRB 6 9 30.12 1020 10 16 N/A
2:53 pm 14:53 Sunny 88 31.1 67 19.4 50 50 VRB 6 9 30.11 1020 10 16 N/A
3:53 pm 15:53 Sunny 88 31.1 67 19.4 50 50 SSW 6 9 30.10 1019 10 16 N/A
4:53 pm 16:53 Mostly Sunny 89 31.7 66 18.9 47 47 SW 5 7 30.09 1019 10 16 N/A
5:53 pm 17:53 Sunny 89 31.7 66 18.9 47 47 VRB 5 7 30.09 1019 10 16 N/A
6:53 pm 18:53 Sunny 87 30.6 67 19.4 51 51 WSW 6 9 30.08 1019 10 16 N/A
7:53 pm 19:53 Sunny 86 30 67 19.4 53 53 SSW 5 7 30.08 1019 10 16 N/A
8:53 pm 20:53 Sunny 78 25.6 70 21.1 76 76 WSW 3 6 30.10 1019 10 16 N/A
9:53 pm 21:53 Clear 75 23.9 70 21.1 84 84 N N/A 30.11 1020 10 16 N/A
10:53 pm 22:53 Mostly Clear 73 22.8 70 21.1 90 90 N N/A 30.13 1020 10 16 N/A
11:53 pm 23:53 Mostly Clear 71 21.7 70 21.1 96 96 N N/A 30.13 1020 10 16 N/A

Powered by AerisWeather